DW7857 Weather Reports


Display with metric or nautical units.
time (UTC)temp
F
wind
direction
speed
MPH
gust
MPH
rain 1hr
in
rain 24hr
in
rain mn
in
humidity
%
barometer
mb
20260503220003 52 193 1.0 2.0 0.00 0.48 0.09 91 1015.0
20260503215403 52 225 0.0 2.0 0.00 0.48 0.09 91 1015.1
20260503214503 52 184 1.0 2.0 0.00 0.48 0.09 91 1014.8
20260503213814 52 219 1.0 2.0 0.00 0.48 0.09 90 1014.9
20260503212703 52 285 1.0 2.0 0.00 0.48 0.09 90 1015.0
20260503211803 52 212 1.0 2.0 0.00 0.48 0.09 90 1015.0
20260503210903 52 190 2.0 4.0 0.00 0.48 0.09 90 1014.7
20260503210003 53 204 2.0 4.0 0.00 0.48 0.09 90 1014.7
20260503205403 53 194 3.0 4.0 0.00 0.48 0.09 90 1014.6
20260503204503 53 216 3.0 4.0 0.00 0.48 0.09 90 1014.5
20260503203603 53 195 2.0 4.0 0.00 0.48 0.09 90 1014.6
20260503202703 53 191 3.0 4.0 0.00 0.48 0.09 90 1014.5
20260503201803 53 196 3.0 4.0 0.00 0.48 0.09 90 1014.3
20260503200903 53 216 3.0 4.0 0.00 0.48 0.09 90 1014.2
20260503200003 53 195 4.0 4.0 0.00 0.48 0.09 90 1014.1
20260503195403 53 190 3.0 4.0 0.00 0.48 0.09 90 1014.1
20260503194503 53 195 3.0 5.0 0.00 0.48 0.09 89 1013.8
20260503193813 53 190 4.0 5.0 0.00 0.48 0.09 88 1013.9
20260503192703 54 187 4.0 4.0 0.00 0.48 0.09 87 1013.8
20260503191803 54 204 3.0 5.0 0.00 0.48 0.09 85 1013.8
20260503190903 55 212 3.0 4.0 0.00 0.48 0.09 81 1013.6
20260503190003 56 182 3.0 4.0 0.00 0.48 0.09 80 1013.7
20260503185403 56 179 3.0 4.0 0.00 0.48 0.09 79 1013.5
20260503184503 57 239 3.0 4.0 0.00 0.48 0.09 79 1013.4
20260503183603 57 214 3.0 4.0 0.00 0.48 0.09 79 1013.5
20260503182704 57 175 3.0 4.0 0.00 0.48 0.09 78 1013.5
20260503181803 57 180 4.0 4.0 0.00 0.48 0.09 78 1013.3
20260503180903 58 224 3.0 5.0 0.00 0.48 0.09 78 1013.1
20260503180215 58 214 3.0 4.0 0.00 0.48 0.09 77 1013.3
20260503175403 58 124 3.0 5.0 0.00 0.48 0.09 79 1013.0
20260503174503 57 197 3.0 5.0 0.00 0.48 0.09 80 1013.3
20260503173813 56 208 4.0 8.0 0.00 0.50 0.09 80 1013.1
20260503172703 56 197 4.0 5.0 0.00 0.50 0.09 80 1012.9
20260503171803 56 203 3.0 4.0 0.00 0.50 0.09 80 1013.1
20260503170903 56 275 3.0 5.0 0.00 0.50 0.09 80 1013.3
20260503160214 56 195 5.0 8.0 0.00 0.56 0.09 82 1013.1
20260503150903 58 207 5.0 8.0 0.00 0.60 0.09 78 1013.1
20260503130903 59 249 5.0 7.0 0.00 0.85 0.09 74 1013.4
20260503090213 58 83 2.0 3.0 0.00 0.87 0.09 94 1013.6
20260503081113 53 109 2.0 4.0 0.00 0.87 0.09 100 1013.6
20260503072703 53 42 2.0 3.0 0.00 0.87 0.09 100 1013.5
20260503071803 53 61 2.0 3.0 0.00 0.87 0.09 100 1013.3
20260502223603 52 165 1.0 2.0 0.00 0.39 0.39 100 1001.9
20260502222703 52 257 0.0 1.0 0.00 0.39 0.39 100 1002.1
20260502221803 52 315 0.0 1.0 0.00 0.39 0.39 100 1001.9
20260502220903 52 290 0.0 1.0 0.00 0.39 0.39 100 1002.2